| time (UTC) | temp F | wind direction | speed MPH | gust MPH | rain 1hr in | rain 24hr in | rain mn in | humidity % | barometer mb |
| 20260831164344 | 87 | 74 | 5.0 | 11.0 | 0.00 | 0.28 | 0.00 | 73 | 1018.1 |
| 20260831164114 | 88 | 49 | 5.0 | 11.0 | 0.00 | 0.28 | 0.00 | 71 | 1018.2 |
| 20260831163342 | 88 | 128 | 6.0 | 12.0 | 0.00 | 0.28 | 0.00 | 73 | 1018.2 |
| 20260831162842 | 88 | 66 | 5.0 | 12.0 | 0.00 | 0.28 | 0.00 | 71 | 1018.2 |
| 20260831162343 | 87 | 89 | 5.0 | 11.0 | 0.00 | 0.28 | 0.00 | 73 | 1018.3 |
| 20260831161838 | 87 | 74 | 5.0 | 11.0 | 0.00 | 0.28 | 0.00 | 72 | 1018.3 |
| 20260831161340 | 87 | 67 | 4.0 | 9.0 | 0.00 | 0.28 | 0.00 | 74 | 1018.2 |
| 20260831161111 | 87 | 71 | 4.0 | 12.0 | 0.00 | 0.28 | 0.00 | 73 | 1018.3 |
| 20260831160338 | 87 | 71 | 4.0 | 12.0 | 0.00 | 0.28 | 0.00 | 75 | 1018.5 |
| 20260831155839 | 87 | 88 | 4.0 | 9.0 | 0.00 | 0.28 | 0.00 | 74 | 1018.4 |
| 20260831155339 | 87 | 49 | 6.0 | 12.0 | 0.00 | 0.28 | 0.00 | 75 | 1018.4 |
| 20260831154834 | 87 | 92 | 6.0 | 12.0 | 0.00 | 0.28 | 0.00 | 73 | 1018.4 |
| 20260831154336 | 86 | 114 | 5.0 | 11.0 | 0.00 | 0.28 | 0.00 | 77 | 1018.4 |
| 20260831153835 | 86 | 91 | 5.0 | 10.0 | 0.00 | 0.28 | 0.00 | 78 | 1018.5 |
| 20260831153334 | 85 | 66 | 4.0 | 10.0 | 0.00 | 0.28 | 0.00 | 78 | 1018.5 |
| 20260831152849 | 85 | 98 | 3.0 | 9.0 | 0.00 | 0.28 | 0.00 | 78 | 1018.6 |
| 20260831152335 | 85 | 64 | 4.0 | 12.0 | 0.00 | 0.28 | 0.00 | 78 | 1018.6 |
| 20260831151830 | 85 | 57 | 4.0 | 12.0 | 0.00 | 0.28 | 0.00 | 79 | 1018.6 |
| 20260831151600 | 85 | 67 | 3.0 | 9.0 | 0.00 | 0.28 | 0.00 | 80 | 1018.7 |
| 20260831150830 | 85 | 74 | 4.0 | 9.0 | 0.00 | 0.28 | 0.00 | 79 | 1018.7 |
| 20260831150330 | 85 | 86 | 5.0 | 9.0 | 0.00 | 0.28 | 0.00 | 80 | 1018.6 |
| 20260831145826 | 84 | 98 | 4.0 | 9.0 | 0.00 | 0.28 | 0.00 | 82 | 1018.7 |
| 20260831145326 | 84 | 76 | 4.0 | 11.0 | 0.00 | 0.28 | 0.00 | 83 | 1018.6 |
| 20260831144824 | 84 | 142 | 4.0 | 11.0 | 0.00 | 0.28 | 0.00 | 82 | 1018.6 |
| 20260831144324 | 84 | 80 | 3.0 | 10.0 | 0.00 | 0.28 | 0.00 | 83 | 1018.6 |
| 20260831144054 | 83 | 56 | 3.0 | 9.0 | 0.00 | 0.28 | 0.00 | 84 | 1018.5 |
| 20260831143323 | 83 | 25 | 4.0 | 9.0 | 0.00 | 0.28 | 0.00 | 84 | 1018.5 |
| 20260831143049 | 83 | 60 | 3.0 | 8.0 | 0.00 | 0.28 | 0.00 | 84 | 1018.5 |
| 20260831142317 | 83 | 65 | 3.0 | 7.0 | 0.00 | 0.28 | 0.00 | 85 | 1018.4 |
| 20260831141818 | 83 | 83 | 3.0 | 7.0 | 0.00 | 0.28 | 0.00 | 85 | 1018.3 |
| 20260831141317 | 82 | 76 | 3.0 | 6.0 | 0.00 | 0.28 | 0.00 | 86 | 1018.3 |
| 20260831141049 | 82 | 61 | 2.0 | 6.0 | 0.00 | 0.28 | 0.00 | 87 | 1018.3 |
| 20260831140316 | 82 | 87 | 2.0 | 4.0 | 0.00 | 0.28 | 0.00 | 87 | 1018.3 |
| 20260831135810 | 81 | 88 | 3.0 | 7.0 | 0.00 | 0.28 | 0.00 | 88 | 1018.3 |
| 20260831135307 | 81 | 94 | 4.0 | 7.0 | 0.00 | 0.28 | 0.00 | 88 | 1018.2 |
| 20260831134807 | 80 | 71 | 3.0 | 8.0 | 0.00 | 0.28 | 0.00 | 88 | 1018.3 |
| 20260831134541 | 80 | 98 | 2.0 | 7.0 | 0.00 | 0.28 | 0.00 | 89 | 1018.1 |
| 20260831134305 | 80 | 76 | 3.0 | 8.0 | 0.00 | 0.28 | 0.00 | 88 | 1018.1 |
| 20260831133533 | 79 | 82 | 3.0 | 7.0 | 0.00 | 0.28 | 0.00 | 89 | 1018.0 |
| 20260831132802 | 79 | 63 | 3.0 | 8.0 | 0.00 | 0.28 | 0.00 | 90 | 1017.9 |
| 20260831132302 | 79 | 71 | 4.0 | 8.0 | 0.00 | 0.28 | 0.00 | 90 | 1017.9 |
| 20260831131800 | 79 | 44 | 4.0 | 8.0 | 0.00 | 0.28 | 0.00 | 90 | 1017.9 |
| 20260831131301 | 78 | 67 | 2.0 | 6.0 | 0.00 | 0.28 | 0.00 | 90 | 1017.7 |
| 20260831130802 | 78 | 68 | 2.0 | 5.0 | 0.00 | 0.28 | 0.00 | 91 | 1017.7 |
| 20260831130302 | 78 | 22 | 2.0 | 5.0 | 0.00 | 0.28 | 0.00 | 91 | 1017.7 |
| 20260831125754 | 78 | 60 | 2.0 | 3.0 | 0.00 | 0.28 | 0.00 | 92 | 1017.7 |
| 20260831125258 | 77 | 45 | 2.0 | 5.0 | 0.00 | 0.28 | 0.00 | 92 | 1017.6 |
| 20260831125253 | 78 | 68 | 1.0 | 4.0 | 0.00 | 0.28 | 0.00 | 92 | 1017.6 |
| 20260831124301 | 77 | 13 | 2.0 | 5.0 | 0.00 | 0.28 | 0.00 | 93 | 1017.6 |
| 20260831123750 | 76 | 62 | 1.0 | 3.0 | 0.00 | 0.28 | 0.00 | 93 | 1017.7 |
| 20260831123247 | 76 | 74 | 1.0 | 3.0 | 0.00 | 0.28 | 0.00 | 93 | 1017.7 |
| 20260831123016 | 76 | 36 | 1.0 | 2.0 | 0.00 | 0.28 | 0.00 | 93 | 1017.7 |
| 20260831122244 | 76 | 33 | 1.0 | 3.0 | 0.00 | 0.28 | 0.00 | 93 | 1017.6 |
| 20260831121745 | 76 | 57 | 1.0 | 3.0 | 0.00 | 0.28 | 0.00 | 93 | 1017.7 |
| 20260831121242 | 76 | 56 | 1.0 | 3.0 | 0.00 | 0.28 | 0.00 | 93 | 1017.6 |
| 20260831120743 | 76 | 28 | 0.0 | 2.0 | 0.00 | 0.28 | 0.00 | 93 | 1017.4 |
| 20260831120237 | 75 | 44 | 0.0 | 2.0 | 0.00 | 0.28 | 0.00 | 93 | 1017.5 |
| 20260831115736 | 75 | 53 | 0.0 | 2.0 | 0.00 | 0.28 | 0.00 | 93 | 1017.4 |
| 20260831115237 | 75 | 22 | 0.0 | 3.0 | 0.00 | 0.28 | 0.00 | 93 | 1017.5 |
| 20260831114737 | 75 | 22 | 0.0 | 3.0 | 0.00 | 0.28 | 0.00 | 93 | 1017.4 |
| 20260831114236 | 76 | 11 | 0.0 | 2.0 | 0.00 | 0.28 | 0.00 | 93 | 1017.4 |
| 20260831113737 | 76 | 55 | 0.0 | 2.0 | 0.00 | 0.28 | 0.00 | 93 | 1017.4 |
| 20260831113502 | 76 | 55 | 0.0 | 2.0 | 0.00 | 0.28 | 0.00 | 93 | 1017.3 |
| 20260831112727 | 76 | 55 | 1.0 | 2.0 | 0.00 | 0.28 | 0.00 | 93 | 1017.3 |
| 20260831112227 | 76 | 76 | 1.0 | 3.0 | 0.00 | 0.28 | 0.00 | 93 | 1017.2 |
| 20260831111725 | 76 | 19 | 1.0 | 4.0 | 0.00 | 0.28 | 0.00 | 93 | 1017.1 |
| 20260831111225 | 76 | 36 | 1.0 | 4.0 | 0.00 | 0.28 | 0.00 | 93 | 1017.1 |
| 20260831110717 | 76 | 76 | 1.0 | 4.0 | 0.00 | 0.28 | 0.00 | 93 | 1017.0 |
| 20260831110215 | 76 | 34 | 1.0 | 3.0 | 0.00 | 0.28 | 0.00 | 93 | 1017.0 |
| 20260831105716 | 76 | 34 | 1.0 | 3.0 | 0.00 | 0.28 | 0.00 | 93 | 1016.9 |
| 20260831105215 | 76 | 26 | 1.0 | 3.0 | 0.00 | 0.28 | 0.00 | 93 | 1017.0 |
| 20260831104715 | 76 | 15 | 1.0 | 3.0 | 0.00 | 0.28 | 0.00 | 93 | 1016.9 |
| 20260831104214 | 76 | 5 | 0.0 | 3.0 | 0.00 | 0.28 | 0.00 | 93 | 1016.9 |
| 20260831103708 | 76 | 22 | 0.0 | 3.0 | 0.00 | 0.28 | 0.00 | 93 | 1016.8 |
| 20260831103208 | 76 | 30 | 0.0 | 2.0 | 0.00 | 0.28 | 0.00 | 93 | 1016.8 |
| 20260831102708 | 76 | 30 | 0.0 | 2.0 | 0.00 | 0.28 | 0.00 | 93 | 1016.8 |
| 20260831102209 | 76 | 30 | 1.0 | 3.0 | 0.00 | 0.28 | 0.00 | 93 | 1016.7 |
| 20260831101709 | 76 | 30 | 1.0 | 3.0 | 0.00 | 0.28 | 0.00 | 93 | 1016.7 |
| 20260831101210 | 76 | 30 | 1.0 | 2.0 | 0.00 | 0.28 | 0.00 | 93 | 1016.7 |
| 20260831100707 | 76 | 24 | 1.0 | 2.0 | 0.00 | 0.28 | 0.00 | 93 | 1016.7 |
| 20260831100205 | 76 | 24 | 1.0 | 3.0 | 0.00 | 0.28 | 0.00 | 93 | 1016.6 |
| 20260831095701 | 76 | 24 | 1.0 | 3.0 | 0.00 | 0.28 | 0.00 | 93 | 1016.6 |
| 20260831095434 | 76 | 90 | 0.0 | 2.0 | 0.00 | 0.28 | 0.00 | 93 | 1016.6 |
| 20260831094702 | 76 | 90 | 0.0 | 0.0 | 0.00 | 0.28 | 0.00 | 93 | 1016.7 |
| 20260831094433 | 76 | 90 | 0.0 | 0.0 | 0.00 | 0.28 | 0.00 | 93 | 1016.6 |
| 20260831093659 | 76 | 90 | 0.0 | 0.0 | 0.00 | 0.28 | 0.00 | 93 | 1016.7 |
| 20260831093158 | 76 | 90 | 0.0 | 0.0 | 0.00 | 0.28 | 0.00 | 93 | 1016.6 |
| 20260831092657 | 76 | 90 | 0.0 | 0.0 | 0.00 | 0.28 | 0.00 | 93 | 1016.6 |
| 20260831092153 | 76 | 90 | 0.0 | 0.0 | 0.00 | 0.28 | 0.00 | 93 | 1016.6 |
| 20260831091654 | 76 | 90 | 0.0 | 0.0 | 0.00 | 0.28 | 0.00 | 93 | 1016.5 |
| 20260831091154 | 76 | 90 | 0.0 | 0.0 | 0.00 | 0.28 | 0.00 | 93 | 1016.6 |
| 20260831090647 | 76 | 90 | 0.0 | 0.0 | 0.00 | 0.28 | 0.00 | 93 | 1016.6 |
| 20260831090415 | 76 | 90 | 0.0 | 0.0 | 0.00 | 0.28 | 0.00 | 93 | 1016.6 |
| 20260831085646 | 76 | 90 | 0.0 | 0.0 | 0.00 | 0.28 | 0.00 | 93 | 1016.5 |
| 20260831085144 | 76 | 90 | 0.0 | 0.0 | 0.00 | 0.28 | 0.00 | 93 | 1016.5 |
| 20260831084915 | 76 | 90 | 0.0 | 0.0 | 0.00 | 0.28 | 0.00 | 92 | 1016.5 |
| 20260831084415 | 76 | 90 | 0.0 | 0.0 | 0.00 | 0.28 | 0.00 | 92 | 1016.5 |
| 20260831083916 | 77 | 90 | 0.0 | 0.0 | 0.00 | 0.28 | 0.00 | 92 | 1016.6 |
| 20260831083144 | 77 | 90 | 0.0 | 0.0 | 0.00 | 0.28 | 0.00 | 92 | 1016.5 |
| 20260831082915 | 77 | 90 | 0.0 | 0.0 | 0.00 | 0.28 | 0.00 | 92 | 1016.5 |
| 20260831082145 | 77 | 90 | 0.0 | 0.0 | 0.00 | 0.28 | 0.00 | 92 | 1016.5 |
| 20260831081916 | 77 | 90 | 0.0 | 0.0 | 0.00 | 0.28 | 0.00 | 92 | 1016.5 |
| 20260831081144 | 77 | 90 | 0.0 | 0.0 | 0.00 | 0.28 | 0.00 | 92 | 1016.6 |
| 20260831080642 | 77 | 90 | 0.0 | 0.0 | 0.00 | 0.28 | 0.00 | 92 | 1016.5 |
| 20260831080415 | 77 | 90 | 0.0 | 0.0 | 0.00 | 0.28 | 0.00 | 92 | 1016.5 |
| 20260831075911 | 77 | 90 | 0.0 | 0.0 | 0.00 | 0.28 | 0.00 | 92 | 1016.4 |
| 20260831075139 | 77 | 90 | 0.0 | 2.0 | 0.00 | 0.28 | 0.00 | 92 | 1016.4 |
| 20260831074641 | 77 | 90 | 1.0 | 2.0 | 0.00 | 0.28 | 0.00 | 92 | 1016.5 |
| 20260831074140 | 77 | 90 | 1.0 | 2.0 | 0.00 | 0.28 | 0.00 | 92 | 1016.6 |
| 20260831073643 | 77 | 90 | 0.0 | 2.0 | 0.00 | 0.28 | 0.00 | 92 | 1016.6 |
| 20260831073639 | 77 | 90 | 1.0 | 2.0 | 0.00 | 0.28 | 0.00 | 92 | 1016.6 |
| 20260831072638 | 77 | 100 | 0.0 | 0.0 | 0.00 | 0.28 | 0.00 | 92 | 1016.7 |
| 20260831072137 | 77 | 80 | 0.0 | 0.0 | 0.00 | 0.28 | 0.00 | 92 | 1016.8 |
| 20260831071633 | 77 | 121 | 0.0 | 0.0 | 0.00 | 0.28 | 0.00 | 92 | 1016.8 |
| 20260831071130 | 78 | 121 | 0.0 | 0.0 | 0.00 | 0.28 | 0.00 | 92 | 1016.8 |
| 20260831070628 | 78 | 121 | 0.0 | 0.0 | 0.00 | 0.28 | 0.00 | 92 | 1016.9 |
| 20260831070126 | 78 | 121 | 0.0 | 0.0 | 0.00 | 0.28 | 0.00 | 92 | 1016.9 |
| 20260831065625 | 78 | 126 | 0.0 | 0.0 | 0.00 | 0.28 | 0.00 | 92 | 1017.0 |
| 20260831065119 | 78 | 126 | 0.0 | 0.0 | 0.00 | 0.28 | 0.00 | 92 | 1016.9 |
| 20260831064616 | 78 | 126 | 0.0 | 0.0 | 0.00 | 0.28 | 0.00 | 92 | 1016.9 |
| 20260831064116 | 78 | 126 | 0.0 | 0.0 | 0.00 | 0.28 | 0.00 | 92 | 1017.0 |
| 20260831063614 | 78 | 126 | 0.0 | 0.0 | 0.00 | 0.28 | 0.00 | 92 | 1017.0 |
| 20260831063113 | 78 | 126 | 0.0 | 0.0 | 0.00 | 0.28 | 0.00 | 92 | 1017.1 |
| 20260831062608 | 78 | 126 | 0.0 | 0.0 | 0.00 | 0.28 | 0.00 | 92 | 1017.1 |
| 20260831062338 | 78 | 126 | 0.0 | 0.0 | 0.00 | 0.28 | 0.00 | 92 | 1017.1 |
| 20260831061608 | 78 | 126 | 0.0 | 0.0 | 0.00 | 0.28 | 0.00 | 92 | 1017.2 |
| 20260831061108 | 78 | 126 | 0.0 | 0.0 | 0.00 | 0.28 | 0.00 | 92 | 1017.2 |
| 20260831060606 | 78 | 126 | 0.0 | 0.0 | 0.00 | 0.28 | 0.00 | 92 | 1017.3 |
| 20260831060105 | 78 | 126 | 0.0 | 0.0 | 0.00 | 0.28 | 0.00 | 92 | 1017.3 |
| 20260831055603 | 78 | 126 | 0.0 | 0.0 | 0.00 | 0.28 | 0.00 | 92 | 1017.3 |
| 20260831055101 | 78 | 126 | 0.0 | 0.0 | 0.00 | 0.28 | 0.00 | 92 | 1017.2 |
| 20260831054835 | 78 | 126 | 0.0 | 0.0 | 0.00 | 0.28 | 0.00 | 91 | 1017.3 |
| 20260831054102 | 78 | 126 | 0.0 | 0.0 | 0.00 | 0.28 | 0.00 | 91 | 1017.3 |
| 20260831053601 | 78 | 126 | 0.0 | 0.0 | 0.00 | 0.28 | 0.00 | 91 | 1017.3 |
| 20260831053101 | 78 | 126 | 0.0 | 0.0 | 0.00 | 0.28 | 0.00 | 91 | 1017.3 |
| 20260831052554 | 78 | 126 | 0.0 | 0.0 | 0.00 | 0.28 | 0.00 | 91 | 1017.3 |
| 20260831052052 | 78 | 126 | 0.0 | 0.0 | 0.00 | 0.28 | 0.00 | 91 | 1017.3 |
| 20260831051549 | 78 | 126 | 0.0 | 0.0 | 0.00 | 0.28 | 0.00 | 91 | 1017.3 |
| 20260831051048 | 78 | 126 | 0.0 | 0.0 | 0.00 | 0.28 | 0.00 | 90 | 1017.3 |
| 20260831050547 | 78 | 126 | 0.0 | 0.0 | 0.00 | 0.28 | 0.00 | 90 | 1017.3 |
| 20260831050046 | 78 | 125 | 0.0 | 0.0 | 0.00 | 0.28 | 0.00 | 90 | 1017.3 |
| 20260831045539 | 78 | 126 | 0.0 | 0.0 | 0.00 | 0.28 | 0.28 | 89 | 1017.3 |
| 20260831045040 | 79 | 126 | 0.0 | 0.0 | 0.00 | 0.28 | 0.28 | 90 | 1017.4 |
| 20260831044539 | 79 | 125 | 0.0 | 0.0 | 0.00 | 0.28 | 0.28 | 89 | 1017.4 |
| 20260831044048 | 79 | 125 | 0.0 | 0.0 | 0.00 | 0.28 | 0.28 | 89 | 1017.4 |
| 20260831044041 | 79 | 125 | 0.0 | 0.0 | 0.00 | 0.28 | 0.28 | 89 | 1017.4 |
| 20260831043041 | 79 | 125 | 0.0 | 0.0 | 0.00 | 0.28 | 0.28 | 89 | 1017.5 |
| 20260831042536 | 79 | 125 | 0.0 | 0.0 | 0.00 | 0.28 | 0.28 | 89 | 1017.6 |
| 20260831042036 | 79 | 125 | 0.0 | 0.0 | 0.00 | 0.28 | 0.28 | 89 | 1017.5 |
| 20260831041535 | 79 | 125 | 0.0 | 0.0 | 0.00 | 0.28 | 0.28 | 89 | 1017.5 |
| 20260831041305 | 79 | 125 | 0.0 | 0.0 | 0.00 | 0.28 | 0.28 | 88 | 1017.6 |
| 20260831040534 | 79 | 125 | 0.0 | 0.0 | 0.00 | 0.28 | 0.28 | 88 | 1017.6 |
| 20260831040037 | 79 | 125 | 0.0 | 0.0 | 0.00 | 0.28 | 0.28 | 88 | 1017.7 |
| 20260831040030 | 79 | 125 | 0.0 | 0.0 | 0.00 | 0.28 | 0.28 | 87 | 1017.6 |
| 20260831035027 | 80 | 125 | 0.0 | 0.0 | 0.00 | 0.28 | 0.28 | 87 | 1017.6 |
| 20260831034756 | 80 | 125 | 0.0 | 0.0 | 0.00 | 0.28 | 0.28 | 87 | 1017.6 |
| 20260831034023 | 80 | 125 | 0.0 | 2.0 | 0.00 | 0.28 | 0.28 | 86 | 1017.6 |
| 20260831033522 | 80 | 125 | 1.0 | 3.0 | 0.00 | 0.28 | 0.28 | 86 | 1017.5 |
| 20260831033016 | 80 | 117 | 1.0 | 3.0 | 0.00 | 0.28 | 0.28 | 86 | 1017.5 |
| 20260831032746 | 80 | 98 | 1.0 | 3.0 | 0.00 | 0.28 | 0.28 | 86 | 1017.5 |
| 20260831032012 | 80 | 113 | 1.0 | 3.0 | 0.00 | 0.28 | 0.28 | 86 | 1017.5 |
| 20260831031511 | 80 | 115 | 0.0 | 3.0 | 0.00 | 0.28 | 0.28 | 86 | 1017.4 |
| 20260831031010 | 80 | 155 | 0.0 | 1.0 | 0.00 | 0.28 | 0.28 | 86 | 1017.4 |
| 20260831030505 | 80 | 118 | 1.0 | 3.0 | 0.00 | 0.28 | 0.28 | 85 | 1017.4 |
| 20260831030004 | 80 | 123 | 1.0 | 3.0 | 0.00 | 0.28 | 0.28 | 85 | 1017.4 |
| 20260831025500 | 80 | 126 | 2.0 | 3.0 | 0.00 | 0.28 | 0.28 | 85 | 1017.4 |
| 20260831024959 | 80 | 131 | 2.0 | 4.0 | 0.00 | 0.28 | 0.28 | 85 | 1017.4 |
| 20260831024459 | 80 | 110 | 2.0 | 4.0 | 0.00 | 0.28 | 0.28 | 84 | 1017.3 |
| 20260831023952 | 80 | 102 | 2.0 | 4.0 | 0.00 | 0.28 | 0.28 | 84 | 1017.3 |
| 20260831023449 | 81 | 109 | 2.0 | 4.0 | 0.00 | 0.28 | 0.28 | 84 | 1017.4 |
| 20260831022953 | 81 | 106 | 1.0 | 3.0 | 0.00 | 0.28 | 0.28 | 84 | 1017.1 |
| 20260831022948 | 81 | 121 | 1.0 | 4.0 | 0.00 | 0.28 | 0.28 | 84 | 1017.2 |
| 20260831021946 | 81 | 128 | 2.0 | 4.0 | 0.00 | 0.28 | 0.28 | 84 | 1016.9 |
| 20260831021439 | 81 | 119 | 2.0 | 4.0 | 0.00 | 0.28 | 0.28 | 84 | 1016.8 |
| 20260831021211 | 81 | 126 | 1.0 | 3.0 | 0.00 | 0.28 | 0.28 | 84 | 1016.8 |
| 20260831020439 | 81 | 132 | 1.0 | 3.0 | 0.00 | 0.28 | 0.28 | 83 | 1016.7 |
| 20260831015941 | 81 | 104 | 1.0 | 3.0 | 0.00 | 0.28 | 0.28 | 83 | 1016.7 |
| 20260831015440 | 81 | 105 | 2.0 | 3.0 | 0.00 | 0.28 | 0.28 | 83 | 1016.4 |
| 20260831014941 | 81 | 107 | 2.0 | 4.0 | 0.00 | 0.28 | 0.28 | 82 | 1016.3 |
| 20260831014438 | 81 | 117 | 2.0 | 4.0 | 0.00 | 0.28 | 0.28 | 82 | 1016.2 |
| 20260831014206 | 81 | 127 | 2.0 | 4.0 | 0.00 | 0.28 | 0.28 | 82 | 1016.2 |
| 20260831013436 | 81 | 108 | 2.0 | 4.0 | 0.00 | 0.28 | 0.28 | 82 | 1016.2 |
| 20260831012939 | 81 | 121 | 2.0 | 4.0 | 0.00 | 0.28 | 0.28 | 82 | 1016.1 |
| 20260831012709 | 82 | 86 | 2.0 | 5.0 | 0.00 | 0.28 | 0.28 | 82 | 1016.5 |
| 20260831011934 | 82 | 100 | 2.0 | 6.0 | 0.00 | 0.28 | 0.28 | 82 | 1016.0 |
| 20260831011434 | 82 | 94 | 3.0 | 6.0 | 0.00 | 0.28 | 0.28 | 82 | 1016.0 |
| 20260831010929 | 82 | 102 | 2.0 | 6.0 | 0.00 | 0.28 | 0.28 | 83 | 1015.9 |
| 20260831010428 | 82 | 107 | 3.0 | 7.0 | 0.00 | 0.28 | 0.28 | 83 | 1015.7 |
| 20260831005928 | 82 | 89 | 2.0 | 7.0 | 0.00 | 0.28 | 0.28 | 83 | 1015.7 |
| 20260831005426 | 82 | 93 | 2.0 | 7.0 | 0.00 | 0.28 | 0.28 | 83 | 1015.8 |
| 20260831004926 | 82 | 113 | 1.0 | 3.0 | 0.00 | 0.28 | 0.28 | 84 | 1015.8 |
| 20260831004705 | 82 | 125 | 2.0 | 6.0 | 0.01 | 0.28 | 0.28 | 85 | 1015.9 |
| 20260831004425 | 82 | 99 | 2.0 | 4.0 | 0.00 | 0.28 | 0.28 | 85 | 1015.8 |
| 20260831003927 | 82 | 107 | 2.0 | 4.0 | 0.00 | 0.28 | 0.28 | 85 | 1015.8 |
| 20260831002921 | 82 | 129 | 2.0 | 6.0 | 0.01 | 0.28 | 0.28 | 85 | 1016.0 |
| 20260831002652 | 82 | 111 | 3.0 | 7.0 | 0.07 | 0.28 | 0.28 | 86 | 1016.0 |
| 20260831001922 | 82 | 89 | 3.0 | 7.0 | 0.17 | 0.28 | 0.28 | 85 | 1016.0 |
| 20260831001421 | 82 | 122 | 3.0 | 6.0 | 0.28 | 0.28 | 0.28 | 85 | 1015.9 |
| 20260831000924 | 82 | 107 | 3.0 | 6.0 | 0.28 | 0.28 | 0.28 | 87 | 1015.8 |
| 20260831000417 | 82 | 78 | 2.0 | 6.0 | 0.28 | 0.28 | 0.28 | 87 | 1015.8 |
| 20260830235918 | 82 | 127 | 4.0 | 8.0 | 0.28 | 0.28 | 0.28 | 87 | 1015.7 |
| 20260830235417 | 82 | 131 | 5.0 | 10.0 | 0.28 | 0.28 | 0.28 | 87 | 1015.5 |
| 20260830234917 | 82 | 101 | 4.0 | 10.0 | 0.28 | 0.28 | 0.28 | 87 | 1015.5 |
| 20260830234418 | 81 | 109 | 5.0 | 12.0 | 0.28 | 0.28 | 0.28 | 87 | 1015.4 |
| 20260830233916 | 81 | 138 | 6.0 | 15.0 | 0.28 | 0.28 | 0.28 | 85 | 1015.3 |
| 20260830233414 | 82 | 187 | 7.0 | 15.0 | 0.27 | 0.27 | 0.28 | 84 | 1015.3 |
| 20260830233145 | 82 | 115 | 9.0 | 16.0 | 0.27 | 0.27 | 0.27 | 83 | 1015.5 |
| 20260830232414 | 84 | 111 | 12.0 | 21.0 | 0.21 | 0.21 | 0.24 | 81 | 1015.9 |
| 20260830231912 | 86 | 111 | 13.0 | 23.0 | 0.11 | 0.11 | 0.11 | 77 | 1016.0 |
| 20260830231413 | 89 | 148 | 11.0 | 23.0 | 0.00 | 0.00 | 0.00 | 68 | 1015.9 |
| 20260830230907 | 91 | 103 | 8.0 | 16.0 | 0.00 | 0.00 | 0.00 | 62 | 1015.7 |
| 20260830230408 | 92 | 84 | 5.0 | 11.0 | 0.00 | 0.00 | 0.00 | 58 | 1015.5 |
| 20260830225906 | 92 | 137 | 4.0 | 9.0 | 0.00 | 0.00 | 0.00 | 57 | 1015.3 |
| 20260830225406 | 92 | 76 | 3.0 | 9.0 | 0.00 | 0.00 | 0.00 | 57 | 1015.2 |
| 20260830224906 | 93 | 82 | 3.0 | 9.0 | 0.00 | 0.00 | 0.00 | 56 | 1015.3 |
| 20260830224406 | 93 | 69 | 4.0 | 9.0 | 0.00 | 0.00 | 0.00 | 55 | 1015.3 |
| 20260830224136 | 94 | 94 | 4.0 | 9.0 | 0.00 | 0.00 | 0.00 | 55 | 1015.4 |
| 20260830223401 | 95 | 80 | 3.0 | 9.0 | 0.00 | 0.00 | 0.00 | 54 | 1015.3 |
| 20260830222901 | 94 | 124 | 3.0 | 9.0 | 0.00 | 0.00 | 0.00 | 55 | 1015.2 |
| 20260830222400 | 94 | 71 | 4.0 | 9.0 | 0.00 | 0.00 | 0.00 | 53 | 1015.2 |
| 20260830221900 | 94 | 90 | 3.0 | 9.0 | 0.00 | 0.00 | 0.00 | 53 | 1015.1 |
| 20260830221359 | 94 | 74 | 3.0 | 9.0 | 0.00 | 0.00 | 0.00 | 53 | 1015.2 |
| 20260830220853 | 94 | 5 | 3.0 | 9.0 | 0.00 | 0.00 | 0.00 | 53 | 1015.1 |
| 20260830220353 | 94 | 59 | 3.0 | 8.0 | 0.00 | 0.00 | 0.00 | 53 | 1015.3 |
| 20260830215853 | 94 | 42 | 3.0 | 9.0 | 0.00 | 0.00 | 0.00 | 53 | 1015.3 |
| 20260830215356 | 94 | 18 | 3.0 | 9.0 | 0.00 | 0.00 | 0.00 | 51 | 1015.3 |
| 20260830214851 | 94 | 5 | 3.0 | 8.0 | 0.00 | 0.00 | 0.00 | 54 | 1015.2 |
| 20260830214352 | 94 | 79 | 4.0 | 8.0 | 0.00 | 0.00 | 0.00 | 51 | 1015.3 |
| 20260830214122 | 94 | 57 | 5.0 | 11.0 | 0.00 | 0.00 | 0.00 | 52 | 1015.3 |
| 20260830213621 | 94 | 86 | 4.0 | 11.0 | 0.00 | 0.00 | 0.00 | 53 | 1015.3 |
| 20260830212847 | 94 | 22 | 2.0 | 9.0 | 0.00 | 0.00 | 0.00 | 52 | 1015.4 |
| 20260830212620 | 94 | 53 | 3.0 | 9.0 | 0.00 | 0.00 | 0.00 | 52 | 1015.4 |
| 20260830211846 | 94 | 21 | 3.0 | 9.0 | 0.00 | 0.00 | 0.00 | 52 | 1015.6 |
| 20260830211346 | 94 | 63 | 3.0 | 9.0 | 0.00 | 0.00 | 0.00 | 51 | 1015.5 |
| 20260830210845 | 94 | 80 | 4.0 | 10.0 | 0.00 | 0.00 | 0.00 | 51 | 1015.5 |
| 20260830210610 | 94 | 47 | 5.0 | 12.0 | 0.00 | 0.00 | 0.00 | 51 | 1015.5 |
| 20260830205339 | 94 | 28 | 2.0 | 8.0 | 0.00 | 0.00 | 0.00 | 52 | 1015.6 |
| 20260830204840 | 94 | 37 | 3.0 | 10.0 | 0.00 | 0.00 | 0.00 | 52 | 1015.6 |
| 20260830204339 | 94 | 76 | 3.0 | 10.0 | 0.00 | 0.00 | 0.00 | 49 | 1015.7 |
| 20260830203841 | 94 | 9 | 3.0 | 7.0 | 0.00 | 0.00 | 0.00 | 53 | 1015.9 |
| 20260830203336 | 94 | 82 | 4.0 | 11.0 | 0.00 | 0.00 | 0.00 | 52 | 1015.9 |
| 20260830202835 | 94 | 82 | 3.0 | 11.0 | 0.00 | 0.00 | 0.00 | 52 | 1016.0 |
| 20260830202608 | 93 | 68 | 3.0 | 12.0 | 0.00 | 0.00 | 0.00 | 51 | 1016.1 |
| 20260830202107 | 94 | 52 | 4.0 | 12.0 | 0.00 | 0.00 | 0.00 | 51 | 1016.3 |
| 20260830201335 | 94 | 33 | 4.0 | 10.0 | 0.00 | 0.00 | 0.00 | 51 | 1016.4 |
| 20260830200833 | 94 | 90 | 4.0 | 9.0 | 0.00 | 0.00 | 0.00 | 52 | 1016.3 |
| 20260830200328 | 94 | 28 | 6.0 | 14.0 | 0.00 | 0.00 | 0.00 | 51 | 1016.5 |
| 20260830195829 | 94 | 67 | 6.0 | 14.0 | 0.00 | 0.00 | 0.00 | 52 | 1016.4 |
| 20260830195329 | 94 | 65 | 3.0 | 12.0 | 0.00 | 0.00 | 0.00 | 52 | 1016.4 |
| 20260830194829 | 94 | 355 | 2.0 | 12.0 | 0.00 | 0.00 | 0.00 | 52 | 1016.4 |
| 20260830194328 | 94 | 327 | 3.0 | 12.0 | 0.00 | 0.00 | 0.00 | 52 | 1016.5 |
| 20260830194058 | 94 | 77 | 4.0 | 12.0 | 0.00 | 0.00 | 0.00 | 50 | 1016.7 |
| 20260830193322 | 94 | 321 | 4.0 | 9.0 | 0.00 | 0.00 | 0.00 | 50 | 1016.7 |
| 20260830192820 | 94 | 87 | 4.0 | 9.0 | 0.00 | 0.00 | 0.00 | 50 | 1016.9 |
| 20260830192317 | 94 | 34 | 4.0 | 14.0 | 0.00 | 0.00 | 0.00 | 50 | 1017.0 |
| 20260830191815 | 94 | 99 | 5.0 | 14.0 | 0.00 | 0.00 | 0.00 | 48 | 1017.2 |
| 20260830191315 | 94 | 71 | 6.0 | 13.0 | 0.00 | 0.00 | 0.00 | 49 | 1017.1 |
| 20260830190810 | 94 | 81 | 5.0 | 13.0 | 0.00 | 0.00 | 0.00 | 51 | 1017.2 |
| 20260830190306 | 94 | 125 | 3.0 | 10.0 | 0.00 | 0.00 | 0.00 | 52 | 1017.1 |
| 20260830185807 | 93 | 355 | 3.0 | 9.0 | 0.00 | 0.00 | 0.00 | 50 | 1017.3 |
| 20260830185309 | 94 | 5 | 3.0 | 8.0 | 0.00 | 0.00 | 0.00 | 52 | 1017.3 |
| 20260830184807 | 94 | 91 | 3.0 | 8.0 | 0.00 | 0.00 | 0.00 | 51 | 1017.2 |
| 20260830184309 | 93 | 84 | 3.0 | 7.0 | 0.00 | 0.00 | 0.00 | 51 | 1017.4 |
| 20260830183802 | 93 | 63 | 4.0 | 9.0 | 0.00 | 0.00 | 0.00 | 51 | 1017.4 |
| 20260830183258 | 93 | 69 | 4.0 | 9.0 | 0.00 | 0.00 | 0.00 | 53 | 1017.4 |
| 20260830182757 | 93 | 60 | 3.0 | 13.0 | 0.00 | 0.00 | 0.00 | 53 | 1017.5 |
| 20260830182256 | 92 | 42 | 4.0 | 13.0 | 0.00 | 0.00 | 0.00 | 53 | 1017.6 |
| 20260830181758 | 93 | 76 | 3.0 | 10.0 | 0.00 | 0.00 | 0.00 | 53 | 1017.6 |
| 20260830181252 | 93 | 317 | 3.0 | 11.0 | 0.00 | 0.00 | 0.00 | 52 | 1017.8 |
| 20260830180753 | 93 | 80 | 3.0 | 11.0 | 0.00 | 0.00 | 0.00 | 54 | 1017.9 |
| 20260830180253 | 93 | 72 | 4.0 | 11.0 | 0.00 | 0.00 | 0.00 | 56 | 1018.0 |
| 20260830175751 | 93 | 69 | 4.0 | 11.0 | 0.00 | 0.00 | 0.00 | 55 | 1018.0 |
| 20260830175520 | 93 | 68 | 3.0 | 9.0 | 0.00 | 0.00 | 0.00 | 59 | 1018.0 |
| 20260830174749 | 92 | 42 | 3.0 | 9.0 | 0.00 | 0.00 | 0.00 | 57 | 1017.9 |
| 20260830174516 | 93 | 74 | 3.0 | 9.0 | 0.00 | 0.00 | 0.00 | 58 | 1018.0 |
| 20260830173742 | 93 | 57 | 4.0 | 8.0 | 0.00 | 0.00 | 0.00 | 59 | 1018.1 |
| 20260830173242 | 93 | 61 | 4.0 | 9.0 | 0.00 | 0.00 | 0.00 | 58 | 1018.1 |
| 20260830173013 | 92 | 92 | 5.0 | 11.0 | 0.00 | 0.00 | 0.00 | 58 | 1018.2 |
| 20260830172243 | 92 | 82 | 5.0 | 11.0 | 0.00 | 0.00 | 0.00 | 55 | 1018.5 |
| 20260830171743 | 92 | 65 | 3.0 | 10.0 | 0.00 | 0.00 | 0.00 | 59 | 1018.5 |
| 20260830171242 | 91 | 0 | 3.0 | 8.0 | 0.00 | 0.00 | 0.00 | 61 | 1018.5 |
| 20260830170743 | 91 | 55 | 3.0 | 10.0 | 0.00 | 0.00 | 0.00 | 57 | 1018.5 |
| 20260830170243 | 92 | 27 | 3.0 | 10.0 | 0.00 | 0.00 | 0.00 | 60 | 1018.5 |
| 20260830165742 | 91 | 19 | 4.0 | 9.0 | 0.00 | 0.00 | 0.00 | 62 | 1018.4 |
| 20260830165245 | 91 | 53 | 3.0 | 9.0 | 0.00 | 0.00 | 0.00 | 62 | 1018.5 |
| 20260830165016 | 91 | 26 | 3.0 | 7.0 | 0.00 | 0.00 | 0.00 | 62 | 1018.5 |